| time (UTC) | temp F | wind direction | speed knots | gust knots | rain 1hr in | rain 24hr in | rain mn in | humidity % | barometer mb |
| 20260906140013 | 76 | 5 | 2.6 | 7.8 | 0.00 | 0.00 | 0.00 | 77 | 1015.0 |
| 20260906134512 | 77 | 355 | 2.6 | 6.1 | 0.00 | 0.00 | 0.00 | 78 | 1014.9 |
| 20260906133011 | 76 | 69 | 0.9 | 3.5 | 0.00 | 0.00 | 0.00 | 79 | 1014.9 |
| 20260906131507 | 76 | 360 | 0.9 | 2.6 | 0.00 | 0.00 | 0.00 | 80 | 1014.8 |
| 20260906130010 | 75 | 30 | 0.0 | 3.5 | 0.00 | 0.00 | 0.00 | 81 | 1014.7 |
| 20260906124605 | 75 | 44 | 0.9 | 3.5 | 0.00 | 0.00 | 0.00 | 82 | 1014.5 |
| 20260906123107 | 75 | 10 | 0.9 | 3.5 | 0.00 | 0.00 | 0.00 | 82 | 1014.4 |
| 20260906121556 | 75 | 42 | 0.9 | 3.5 | 0.00 | 0.00 | 0.00 | 82 | 1014.3 |
| 20260906120058 | 75 | 61 | 0.0 | 2.6 | 0.00 | 0.00 | 0.00 | 82 | 1014.3 |
| 20260906114552 | 75 | 39 | 0.0 | 2.6 | 0.00 | 0.00 | 0.00 | 81 | 1014.0 |
| 20260906113049 | 75 | 41 | 0.0 | 3.5 | 0.00 | 0.00 | 0.00 | 81 | 1013.8 |
| 20260906111549 | 75 | 26 | 0.9 | 3.5 | 0.00 | 0.00 | 0.00 | 81 | 1013.7 |
| 20260906110044 | 76 | 51 | 0.0 | 1.7 | 0.00 | 0.00 | 0.00 | 80 | 1013.5 |
| 20260906104542 | 76 | 51 | 0.9 | 3.5 | 0.00 | 0.00 | 0.00 | 80 | 1013.5 |
| 20260906103046 | 76 | 98 | 0.0 | 2.6 | 0.00 | 0.00 | 0.00 | 80 | 1013.4 |
| 20260906101539 | 77 | 53 | 0.9 | 3.5 | 0.00 | 0.00 | 0.00 | 79 | 1013.4 |
| 20260906100037 | 77 | 22 | 0.9 | 3.5 | 0.00 | 0.00 | 0.00 | 79 | 1013.2 |
| 20260906094539 | 78 | 55 | 0.0 | 2.6 | 0.00 | 0.00 | 0.00 | 79 | 1012.9 |
| 20260906093033 | 78 | 48 | 0.9 | 2.6 | 0.00 | 0.00 | 0.00 | 79 | 1012.9 |
| 20260906091529 | 78 | 73 | 0.9 | 3.5 | 0.00 | 0.00 | 0.00 | 78 | 1012.8 |
| 20260906090028 | 79 | 315 | 0.9 | 2.6 | 0.00 | 0.00 | 0.00 | 78 | 1012.9 |
| 20260906084527 | 79 | 360 | 0.0 | 3.5 | 0.00 | 0.00 | 0.00 | 78 | 1012.8 |
| 20260906083025 | 80 | 342 | 0.9 | 3.5 | 0.00 | 0.00 | 0.00 | 78 | 1012.7 |
| 20260906081524 | 80 | 103 | 0.9 | 3.5 | 0.00 | 0.00 | 0.00 | 77 | 1012.5 |
| 20260906080024 | 80 | 70 | 0.9 | 6.1 | 0.00 | 0.00 | 0.00 | 78 | 1012.6 |
| 20260906074520 | 81 | 43 | 2.6 | 7.8 | 0.00 | 0.00 | 0.00 | 78 | 1012.6 |
| 20260906073018 | 81 | 59 | 0.9 | 3.5 | 0.00 | 0.00 | 0.00 | 77 | 1012.7 |
| 20260906071524 | 82 | 19 | 0.9 | 3.5 | 0.00 | 0.00 | 0.00 | 77 | 1012.5 |
| 20260906070014 | 82 | 95 | 0.0 | 5.2 | 0.00 | 0.00 | 0.00 | 76 | 1012.4 |
| 20260906064512 | 83 | 66 | 0.9 | 4.3 | 0.00 | 0.00 | 0.00 | 76 | 1012.5 |
| 20260906063011 | 83 | 67 | 0.9 | 5.2 | 0.00 | 0.00 | 0.00 | 74 | 1012.5 |
| 20260906061508 | 84 | 76 | 0.9 | 6.1 | 0.00 | 0.00 | 0.00 | 73 | 1012.5 |
| 20260906060005 | 84 | 123 | 1.7 | 5.2 | 0.00 | 0.00 | 0.00 | 72 | 1012.7 |
| 20260906054503 | 85 | 5 | 0.9 | 2.6 | 0.00 | 0.00 | 0.00 | 72 | 1012.6 |
| 20260906053001 | 85 | 105 | 0.0 | 1.7 | 0.00 | 0.00 | 0.00 | 70 | 1012.6 |
| 20260906051559 | 86 | 80 | 0.0 | 2.6 | 0.00 | 0.00 | 0.00 | 69 | 1012.5 |
| 20260906050056 | 86 | 94 | 0.9 | 3.5 | 0.00 | 0.00 | 0.00 | 68 | 1012.4 |
| 20260906044556 | 87 | 113 | 0.9 | 3.5 | 0.00 | 0.00 | 0.00 | 67 | 1012.3 |
| 20260906043055 | 87 | 109 | 0.9 | 4.3 | 0.00 | 0.00 | 0.00 | 66 | 1012.1 |
| 20260906041558 | 88 | 337 | 1.7 | 3.5 | 0.00 | 0.00 | 0.00 | 65 | 1012.1 |
| 20260906040054 | 88 | 19 | 0.9 | 2.6 | 0.00 | 0.00 | 0.00 | 64 | 1012.0 |
| 20260906034602 | 89 | 5 | 0.9 | 4.3 | 0.00 | 0.00 | 0.00 | 63 | 1011.8 |
| 20260906033053 | 89 | 42 | 0.9 | 3.5 | 0.00 | 0.00 | 0.00 | 61 | 1011.9 |
| 20260906031553 | 89 | 42 | 0.9 | 3.5 | 0.00 | 0.00 | 0.00 | 60 | 1011.6 |
| 20260906030054 | 90 | 13 | 0.9 | 4.3 | 0.00 | 0.00 | 0.00 | 58 | 1011.5 |
| 20260906024555 | 90 | 91 | 0.9 | 3.5 | 0.00 | 0.00 | 0.00 | 55 | 1011.4 |
| 20260906023052 | 91 | 28 | 0.9 | 2.6 | 0.00 | 0.00 | 0.00 | 54 | 1011.2 |
| 20260906021557 | 91 | 360 | 0.0 | 3.5 | 0.00 | 0.00 | 0.00 | 52 | 1011.0 |
| 20260906020050 | 91 | 67 | 0.0 | 1.7 | 0.00 | 0.00 | 0.00 | 51 | 1010.9 |
| 20260906014552 | 91 | 76 | 0.0 | 1.7 | 0.00 | 0.00 | 0.00 | 50 | 1010.6 |
| 20260906013049 | 91 | 80 | 0.0 | 0.9 | 0.00 | 0.00 | 0.00 | 51 | 1010.5 |
| 20260906011548 | 91 | 81 | 0.0 | 1.7 | 0.00 | 0.00 | 0.00 | 51 | 1010.4 |
| 20260906010113 | 91 | 81 | 0.0 | 0.0 | 0.00 | 0.00 | 0.00 | 51 | 1010.2 |
| 20260906004605 | 93 | 81 | 0.0 | 1.7 | 0.00 | 0.00 | 0.00 | 48 | 1010.1 |
| 20260906003047 | 94 | 63 | 0.9 | 1.7 | 0.00 | 0.00 | 0.00 | 47 | 1010.1 |
| 20260906001559 | 94 | 64 | 0.0 | 1.7 | 0.00 | 0.00 | 0.00 | 45 | 1010.1 |
| 20260906000046 | 94 | 65 | 0.0 | 4.3 | 0.00 | 0.00 | 0.00 | 44 | 1010.0 |
| 20260905234546 | 95 | 58 | 0.0 | 1.7 | 0.00 | 0.00 | 0.00 | 45 | 1010.1 |
| 20260905233045 | 95 | 37 | 0.0 | 1.7 | 0.00 | 0.00 | 0.00 | 46 | 1010.1 |
| 20260905231544 | 96 | 38 | 0.0 | 3.5 | 0.00 | 0.00 | 0.00 | 43 | 1010.2 |
| 20260905230043 | 97 | 130 | 0.9 | 3.5 | 0.00 | 0.00 | 0.00 | 41 | 1010.2 |
| 20260905224544 | 98 | 340 | 1.7 | 4.3 | 0.00 | 0.00 | 0.00 | 38 | 1010.1 |
| 20260905223050 | 98 | 278 | 1.7 | 4.3 | 0.00 | 0.00 | 0.00 | 36 | 1009.9 |
| 20260905221543 | 99 | 324 | 0.9 | 5.2 | 0.00 | 0.00 | 0.00 | 36 | 1010.0 |
| 20260905220041 | 99 | 342 | 1.7 | 7.0 | 0.00 | 0.00 | 0.00 | 34 | 1010.0 |
| 20260905214545 | 100 | 278 | 1.7 | 7.0 | 0.00 | 0.00 | 0.00 | 35 | 1010.0 |
| 20260905213039 | 100 | 273 | 1.7 | 8.7 | 0.00 | 0.00 | 0.00 | 37 | 1010.0 |
| 20260905211538 | 101 | 302 | 0.9 | 7.0 | 0.00 | 0.00 | 0.00 | 35 | 1010.1 |
| 20260905210045 | 101 | 331 | 1.7 | 5.2 | 0.00 | 0.00 | 0.00 | 35 | 1010.3 |
| 20260905204535 | 101 | 271 | 3.5 | 7.0 | 0.00 | 0.00 | 0.00 | 35 | 1010.3 |
| 20260905203037 | 100 | 328 | 3.5 | 8.7 | 0.00 | 0.00 | 0.00 | 37 | 1010.3 |
| 20260905201533 | 101 | 305 | 0.0 | 7.0 | 0.00 | 0.00 | 0.00 | 37 | 1010.5 |
| 20260905200051 | 102 | 327 | 0.9 | 3.5 | 0.00 | 0.00 | 0.00 | 34 | 1010.5 |
| 20260905194530 | 102 | 305 | 1.7 | 3.5 | 0.00 | 0.00 | 0.00 | 35 | 1010.8 |
| 20260905193033 | 102 | 26 | 1.7 | 7.8 | 0.00 | 0.00 | 0.00 | 33 | 1011.0 |
| 20260905191525 | 102 | 299 | 0.9 | 7.8 | 0.00 | 0.00 | 0.00 | 36 | 1011.1 |
| 20260905190026 | 102 | 307 | 1.7 | 4.3 | 0.00 | 0.00 | 0.00 | 36 | 1011.3 |
| 20260905184532 | 102 | 360 | 1.7 | 5.2 | 0.00 | 0.00 | 0.00 | 36 | 1011.4 |
| 20260905183026 | 101 | 342 | 1.7 | 4.3 | 0.00 | 0.00 | 0.00 | 38 | 1011.7 |
| 20260905181518 | 100 | 346 | 1.7 | 7.0 | 0.00 | 0.00 | 0.00 | 39 | 1011.8 |
| 20260905180017 | 101 | 229 | 0.9 | 6.1 | 0.00 | 0.00 | 0.00 | 45 | 1011.9 |
| 20260905174518 | 100 | 294 | 0.9 | 2.6 | 0.00 | 0.00 | 0.00 | 44 | 1011.9 |
| 20260905173016 | 99 | 308 | 0.9 | 3.5 | 0.00 | 0.00 | 0.00 | 46 | 1012.1 |
| 20260905171507 | 99 | 303 | 0.9 | 3.5 | 0.00 | 0.00 | 0.00 | 43 | 1012.2 |
| 20260905164559 | 97 | 313 | 0.9 | 4.3 | 0.00 | 0.00 | 0.00 | 45 | 1012.6 |
| 20260905163056 | 97 | 292 | 1.7 | 5.2 | 0.00 | 0.00 | 0.00 | 46 | 1012.7 |
| 20260905161553 | 96 | 292 | 1.7 | 4.3 | 0.00 | 0.00 | 0.00 | 45 | 1012.9 |
| 20260905160051 | 96 | 340 | 0.9 | 4.3 | 0.00 | 0.00 | 0.00 | 47 | 1012.9 |
| 20260905154547 | 95 | 330 | 1.7 | 4.3 | 0.00 | 0.00 | 0.00 | 48 | 1012.8 |
| 20260905153043 | 95 | 294 | 1.7 | 3.5 | 0.00 | 0.00 | 0.00 | 49 | 1012.9 |
| 20260905151541 | 94 | 265 | 0.9 | 3.5 | 0.00 | 0.00 | 0.00 | 54 | 1012.8 |
| 20260905150035 | 93 | 284 | 0.0 | 3.5 | 0.00 | 0.00 | 0.00 | 53 | 1012.9 |
| 20260905144539 | 92 | 292 | 0.0 | 2.6 | 0.00 | 0.00 | 0.00 | 55 | 1012.8 |
| 20260905143034 | 91 | 278 | 0.0 | 1.7 | 0.00 | 0.00 | 0.00 | 57 | 1012.7 |
| 20260905141524 | 89 | 278 | 0.0 | 2.6 | 0.00 | 0.00 | 0.00 | 60 | 1012.7 |